Air Resources Laboratory banner image
Air Resources Laboratory web site National Oceanic and Atmospheric Administration (NOAA)

nh roundup


Office: GYX

ASUS41 KGYX 200105
RWRGYX
WEATHER ROUNDUP FOR MAINE AND NEW HAMPSHIRE
NATIONAL WEATHER SERVICE GRAY ME
900 PM EDT SUN AUG 19 2018

MEZ002-005-006-010-012-015-018-020-021-024-026-027-029-200200-
MAINE

CITY           SKY/WX    TMP DP  RH WIND       PRES   REMARKS
PORTLAND       MOCLDY    66  60  81 E5        30.14R
SANFORD        FAIR      59  58  96 CALM      30.14R
BAR HARBOR     FAIR      62  58  86 CALM      30.15R
WISCASSET      MOCLDY    65  60  84 CALM      30.15R
ROCKLAND       CLOUDY    65  59  81 CALM      30.14R
FRYEBURG       FAIR      61  59  93 CALM      30.15R
LEWISTONAUBURN MOCLDY    65  60  84 CALM      30.15R
AUGUSTA        FAIR      68  57  68 CALM      30.15R
WATERVILLE     FAIR      65  57  75 N3        30.11S
BANGOR         FAIR      65  57  75 NE5       30.15R
GREENVILLE     NOT AVBL
MILLINOCKET    FAIR      61  57  87 CALM      30.18R
HOULTON        FAIR      60  55  83 E6        30.17R
PRESQUE ISLE   FAIR      62  57  83 VRB3      30.18R
FRENCHVILLE    FAIR      69  52  54 CALM      30.17R
CARIBOU        FAIR      65  57  75 S3        30.17R
$$

NHZ002-005-008-009-011-012-014-200200-
NEW HAMPSHIRE

CITY           SKY/WX    TMP DP  RH WIND       PRES   REMARKS
PORTSMOUTH     MOCLDY    66  58  77 N5        30.11R
ROCHESTER      FAIR      62  60  93 NW3       30.14R
NASHUA         FAIR      64  62  93 NW3       30.14R
MANCHESTER     MOCLDY    67  59  75 NE3       30.12R
CONCORD        FAIR      62  59  90 CALM      30.14R
LACONIA        FAIR      64  60  87 N3        30.15R
PLYMOUTH       FAIR      63  60  91 CALM      30.14R
BERLIN         FAIR      59  57  93 CALM      30.16R
WHITEFIELD     FAIR      59  57  93 CALM      30.15R
JAFFREY        FAIR      62  60  93 CALM      30.17R
KEENE          FAIR     N/A N/A N/A SW3       30.14R
LEBANON        FAIR      64  58  80 S6        30.12R
MT WASHINGTON  PTCLDY    46  36  66 NE5         N/A
$$

VTZ005-007-008-200200-
VERMONT

CITY           SKY/WX    TMP DP  RH WIND       PRES   REMARKS
ST JOHNSBURY     N/A     67  62  84 MISG      30.11R
MONTPELIER     FAIR      67  63  87 CALM      30.16R
BURLINGTON     FAIR      71  63  75 SE3       30.08R
$$

MAZ007-012-024-CTZ003-RIZ002-NYZ038-NYZ072-200200-
SOUTHERN NEW ENGLAND AND NY

CITY           SKY/WX    TMP DP  RH WIND       PRES   REMARKS
BOSTON         CLOUDY    69  61  75 NE20      30.10R
WORCESTER      FAIR      62  58  86 NE9       30.13R
NANTUCKET      LGT RAIN  66  66 100 N13       30.03R FOG
PROVIDENCE     MOCLDY    67  60  78 NE10      30.10R
HARTFORD       CLOUDY    70  56  61 NE6       30.10R
ALBANY         CLOUDY    73  58  59 CALM      30.09R
NEW YORK CITY  CLOUDY    73  64  73 NE7       30.05R
$$

ANZ081-ANZ082-ANZ150-NHZ014-MEZ023>029-200200-
COASTAL MARINE OBSERVATIONS

STATION/POSITION TIME  TEMP    WIND        PRES    WAVE
                       AIR SEA DIR/SP/G            HT/PER
                 (UTC) (F)     (DEG/KT/KT) (MB)    (FT/S)
MOUNT DESERT ROC 0100   58      40/ 11/ 11 1020.2R
MATINICUS ROCK   0000   61      60/ 15/ 16 1019.2R
ISLE OF SHOALS   0000   67      30/ 10/ 11 1019.0R
JEFFREYS LEDGE   0036      69                N/A     6/ 7
$$

.............KEY..............
   WCI - WIND CHILL
   TC  - TEMPERATURE IN CELSIUS
   VSB - VISIBILITY IN MILES
   HX  - HEAT INDEX
   FAIR- INDICATES FEW OR NO CLOUDS BELOW 12,000 FT, WITH NO
         SIGNIFICANT WEATHER AND/OR OBSTRUCTIONS TO VISIBILITY.




ASUS41 KGYX 200110
RWRGYX
WEATHER ROUNDUP FOR MAINE AND NEW HAMPSHIRE
NATIONAL WEATHER SERVICE GRAY ME
900 PM EDT SUN AUG 19 2018

MEZ002-005-006-010-012-015-018-020-021-024-026-027-029-200200-
MAINE

CITY           SKY/WX    TMP DP  RH WIND       PRES   REMARKS
PORTLAND       MOCLDY    66  60  81 E5        30.14R
SANFORD        FAIR      59  58  96 CALM      30.14R
BAR HARBOR     FAIR      62  58  86 CALM      30.15R
WISCASSET      MOCLDY    65  60  84 CALM      30.15R
ROCKLAND       CLOUDY    65  59  81 CALM      30.14R
FRYEBURG       FAIR      61  59  93 CALM      30.15R
LEWISTONAUBURN MOCLDY    65  60  84 CALM      30.15R
AUGUSTA        FAIR      68  57  68 CALM      30.15R
WATERVILLE     FAIR      65  57  75 N3        30.11S
BANGOR         FAIR      65  57  75 NE5       30.15R
GREENVILLE     NOT AVBL
MILLINOCKET    FAIR      61  57  87 CALM      30.18R
HOULTON        FAIR      60  55  83 E6        30.17R
PRESQUE ISLE   FAIR      62  57  83 VRB3      30.18R
FRENCHVILLE    FAIR      69  52  54 CALM      30.17R
CARIBOU        FAIR      65  57  75 S3        30.17R
$$

NHZ002-005-008-009-011-012-014-200200-
NEW HAMPSHIRE

CITY           SKY/WX    TMP DP  RH WIND       PRES   REMARKS
PORTSMOUTH     MOCLDY    66  58  77 N5        30.11R
ROCHESTER      FAIR      62  60  93 NW3       30.14R
NASHUA         FAIR      64  62  93 NW3       30.14R
MANCHESTER     MOCLDY    67  59  75 NE3       30.12R
CONCORD        FAIR      62  59  90 CALM      30.14R
LACONIA        FAIR      64  60  87 N3        30.15R
PLYMOUTH       FAIR      63  60  91 CALM      30.14R
BERLIN         FAIR      59  57  93 CALM      30.16R
WHITEFIELD     FAIR      59  57  93 CALM      30.15R
JAFFREY        FAIR      62  60  93 CALM      30.17R
KEENE          FAIR     N/A N/A N/A SW3       30.14R
LEBANON        FAIR      64  58  80 S6        30.12R
MT WASHINGTON  PTCLDY    46  36  66 NE5         N/A
$$

VTZ005-007-008-200200-
VERMONT

CITY           SKY/WX    TMP DP  RH WIND       PRES   REMARKS
ST JOHNSBURY     N/A     67  62  84 MISG      30.11R
MONTPELIER     FAIR      67  63  87 CALM      30.16R
BURLINGTON     FAIR      71  63  75 SE3       30.08R
$$

MAZ007-012-024-CTZ003-RIZ002-NYZ038-NYZ072-200200-
SOUTHERN NEW ENGLAND AND NY

CITY           SKY/WX    TMP DP  RH WIND       PRES   REMARKS
BOSTON         CLOUDY    69  61  75 NE20      30.10R
WORCESTER      FAIR      62  58  86 NE9       30.13R
NANTUCKET      LGT RAIN  66  66 100 N13       30.03R FOG
PROVIDENCE     MOCLDY    66  61  82 NE10      30.10R
HARTFORD       CLOUDY    70  56  61 NE6       30.10R
ALBANY         CLOUDY    73  58  59 CALM      30.09R
NEW YORK CITY  CLOUDY    73  64  73 NE7       30.05R
$$

ANZ081-ANZ082-ANZ150-NHZ014-MEZ023>029-200200-
COASTAL MARINE OBSERVATIONS

STATION/POSITION TIME  TEMP    WIND        PRES    WAVE
                       AIR SEA DIR/SP/G            HT/PER
                 (UTC) (F)     (DEG/KT/KT) (MB)    (FT/S)
MOUNT DESERT ROC 0100   58      40/ 11/ 11 1020.2R
MATINICUS ROCK   0000   61      60/ 15/ 16 1019.2R
ISLE OF SHOALS   0000   67      30/ 10/ 11 1019.0R
JEFFREYS LEDGE   0036      69                N/A     6/ 7
$$

.............KEY..............
   WCI - WIND CHILL
   TC  - TEMPERATURE IN CELSIUS
   VSB - VISIBILITY IN MILES
   HX  - HEAT INDEX
   FAIR- INDICATES FEW OR NO CLOUDS BELOW 12,000 FT, WITH NO
         SIGNIFICANT WEATHER AND/OR OBSTRUCTIONS TO VISIBILITY.






Office: BOX ASUS41 KBOX 200110 RWRBOX REGIONAL WEATHER ROUNDUP NATIONAL WEATHER SERVICE BOSTON/NORTON MA 900 PM EDT SUN AUG 19 2018 NOTE: "FAIR" INDICATES FEW OR NO CLOUDS BELOW 12,000 FEET WITH NO SIGNIFICANT WEATHER AND/OR OBSTRUCTIONS TO VISIBILITY. MAZALL-200200- EASTERN MASSACHUSETTS CITY SKY/WX TMP DP RH WIND PRES REMARKS BOSTON CLOUDY 69 61 75 NE20 30.10R BEVERLY CLOUDY 68 61 78 NE9 30.11R LAWRENCE FAIR 66 59 78 NE6 30.14R BEDFORD FAIR 64 59 83 N5 30.11R BLUE HILL N/A 64 61 90 NE9G20 30.10R NORWOOD CLOUDY 70 62 76 NE8 30.09R MARSHFIELD CLOUDY 68 64 88 NE9G17 30.08S PLYMOUTH CLOUDY 67 63 87 NE12G20 30.08S TAUNTON CLOUDY 67 61 81 CALM 30.08R NEW BEDFORD CLOUDY 67 63 87 NE8 30.06R $$ MAZALL-200200- CAPE COD AND THE ISLANDS CITY SKY/WX TMP DP RH WIND PRES REMARKS FALMOUTH DRIZZLE 66 64 94 NE13 30.07S HYANNIS LGT RAIN 66 66 100 N8 30.04S FOG CHATHAM CLOUDY 66 65 96 NE8 30.06R FOG PROVINCETOWN CLOUDY 65 64 97 NE12 30.08R NANTUCKET LGT RAIN 66 66 100 N13 30.03R FOG MARTHAS VNYRD CLOUDY 67 64 90 N10 30.05R $$ MAZALL-200200- CENTRAL AND WESTERN MASSACHUSETTS CITY SKY/WX TMP DP RH WIND PRES REMARKS WORCESTER FAIR 62 58 86 NE9 30.13R FITCHBURG FAIR 63 59 87 N5 30.14R ORANGE MOCLDY 67 59 75 NE6 30.15R SPRINGFIELD MOCLDY 67 57 71 E5 30.10R WESTFIELD FAIR 69 57 65 NE9 30.11R NORTH ADAMS FAIR 63 58 83 E3 30.11R PITTSFIELD FAIR 65 57 75 CALM 30.12R $$ RIZALL-200200- RHODE ISLAND CITY SKY/WX TMP DP RH WIND PRES REMARKS PROVIDENCE MOCLDY 66 61 82 NE10 30.10R NEWPORT CLOUDY 67 61 81 NE10 30.08R BLOCK ISLAND LGT RAIN 67 61 81 NE14G23 30.07R SMITHFIELD CLOUDY 65 60 84 NE12 30.10R WESTERLY CLOUDY 69 61 75 NE3 30.08R $$ CTZALL-200200- CONNECTICUT CITY SKY/WX TMP DP RH WIND PRES REMARKS BRADLEY INTL CLOUDY 70 56 61 NE6 30.10R HARTFORD FAIR 70 56 61 NE8 30.09R BRIDGEPORT MOCLDY 72 58 61 NE12 30.08R DANBURY CLOUDY 66 64 93 CALM 30.10R GROTON CLOUDY 68 58 70 NE10 30.07R NEW HAVEN CLOUDY 70 58 65 NE8 30.08R CHESTER FAIR 66 57 72 NE6 30.10R MERIDEN CLOUDY 70 58 65 CALM 30.08R WILLIMANTIC FAIR 67 59 75 N5 30.10R OXFORD CLOUDY 67 58 72 E7 30.11R $$ MEZ002-015-021-024-NHZ003-005-008-011-012-014-VTZ005-008-200200- NORTHERN NEW ENGLAND CITY SKY/WX TMP DP RH WIND PRES REMARKS PORTLAND ME MOCLDY 66 60 81 E5 30.14R BANGOR ME FAIR 65 57 75 NE5 30.15R CONCORD NH FAIR 62 59 90 CALM 30.14R MANCHESTER NH MOCLDY 67 59 75 NE3 30.12R NASHUA NH FAIR 64 62 93 NW3 30.14R PORTSMOUTH NH MOCLDY 66 58 77 N5 30.11R JAFFREY NH FAIR 62 60 93 CALM 30.17R KEENE NH FAIR N/A N/A N/A SW3 30.14R BURLINGTON VT FAIR 71 63 75 SE3 30.08R MT. WASHINGTON PTCLDY 46 36 66 NE5 N/A $$ NYZ052-076-200200- EASTERN NEW YORK CITY SKY/WX TMP DP RH WIND PRES REMARKS ALBANY CLOUDY 73 58 59 CALM 30.09R NEW YORK CITY CLOUDY 73 64 73 NE7 30.05R $$ ANZALL-200200- MARINE OBSERVATIONS STATION/POSITION TIME TEMP WIND PRES VSBY WAVE AIR SEA DIR/SP/G HT/PER (UTC) (F) (DEG/KT/KT) (MB) (MI) (FT/S) BOSTON BUOY 0050 67 68 50/ 16/ 19 1018.1R 5/ 7 BUZZARDS BAY 0000 67 20/ 18/ 20 1017.7R NANTUCKET SOUND 0050 68 75 10/ 16/ 19 1017.1R 2/ 3 MASS BAY-STELLWA 0004 67 67 60/ 19/ 23 1016.9R 1 7/8 6/ 5 ISLE OF SHOALS 0000 67 30/ 10/ 11 1019.0R S OF BLOCK IS 0043 75 N/A 5/ 5 $$ ......................KEY......................... SKY/WX - SKY CONDITION/PRESENT WEATHER TMP - TEMPERATURE IN FAHRENHEIT DWPT - DEWPOINT IN FAHRENHEIT RH - RELATIVE HUMIDITY IN PERCENT WIND - DIRECTION AND SPEED IN MPH PRES - MEAN SEA LEVEL PRESSURE IN INCHES OF HG WCI - WIND CHILL INDEX VSB - VISIBILITY IN MILES HX - HEAT INDEX TC - TEMPERATURE IN CELSIUS VRB - VARIABLE WIND DIRECTION N/A - NOT AVAILABLE